sat.trackr.live / text

‹ back to catalog

STARLINK-37098

NORAD 68192 · 2026-050AB

PAYLOAD ACTIVE UNKNOWN

§ Identity

Operator
Country
US
Launch date
2026-03-14
Launch site
AFETR
Launch vehicle
Mass (kg)
RCS (m²)

Purposes: comms

External: N2YO · Heavens-Above · Gunter

§ Orbital elements

Epoch: 2026-09-19T21:11:49.085664Z

Period
93.85 min
Inclination
53.1588°
Eccentricity
0.0001692
Mean motion
15.34407914 rev/d
Perigee alt
461.5 km
Apogee alt
463.8 km
Semi-major
6,840.8 km
B*
7.3240e-4
RAAN
80.5753°
Arg perigee
89.7572°
Mean anomaly
270.3625°
Rev number
3,047

§ Raw data

STARLINK-370981 68192U 26050AB  26262.88320701  .00024456  00000+0  73240-3 0  99952 68192  53.1588  80.5753 0001692  89.7572 270.3625 15.34407914 30479

JSON: /api/v1/satellites/68192 · /tle

For live sub-satellite position, see the globe view (requires WebGL).

§ Visibility from observer

Set your observer location to see the next 7 days of passes ≥ 10°. The values pass through the URL so the page stays shareable.

No JS? Fill the form by hand. The geolocation button needs JavaScript.